Flag for Germany Weather past 2 weeks in Jena, Thuringia, Germany

Now
45 °F

Clear.


Feels Like: 40 °F
Forecast: 49 / 64 °F
Wind: 9 mph from Southwest

Location: Erfurt-Bindersleben

Current Time: Sep 4, 2015 at 6:47:30 AM

Latest Report: Sep 4, 2015 at 5:50 AM


Visibility: 10 mi

Pressure: 29.95 "Hg

Humidity: 93%

Dew point: 43 °F

Location of JenaLocation

Historic Weather in Jena — Graph

°F

Jena temperature yesterday

Maximum temperature yesterday: 63 °F (at 1:20 PM)
Minimum temperature yesterday: 52 °F (at 1:50 AM)
Average temperature yesterday: 57 °F

Past Weeks' High & Low Weather Summary

 TemperatureHumidityPressure
High91 °F (Aug 30, 3:50 PM)100% (Aug 21, 1:20 AM)30.30 "Hg (Aug 21, 1:20 AM)
Low45 °F (Sep 4, 3:20 AM)28% (Aug 31, 4:20 PM)29.71 "Hg (Aug 24, 1:50 PM)
Average65 °F68%30.02 "Hg
* Reported Aug 20 5:20 AM — Sep 4 5:20 AM, Jena, Weather by CustomWeather, © 2015

Note: Actual official high and low records may vary slightly from our data, if they occured in-between our weather recording intervals... More about our weather records

Advertising

Jena weather history for previous 24 hours

 ConditionsComfort  
Time TempWeatherWind HumidityBarometerVisibility
5:20 AM
Fri, Sep 4
45 °FClear.9 mph93%29.95 "Hg10 mi
4:50 AM46 °FClear.9 mph93%29.95 "Hg10 mi
4:20 AM46 °FClear.9 mph93%29.95 "Hg10 mi
3:50 AM46 °FClear.8 mph93%29.95 "Hg10 mi
3:20 AM45 °FClear.8 mph100%29.95 "Hg10 mi
2:50 AM46 °FClear.9 mph93%29.95 "Hg10 mi
2:20 AM46 °FClear.9 mph93%29.95 "Hg10 mi
1:50 AM50 °FClear.9 mph88%29.95 "Hg10 mi
1:20 AM50 °FClear.9 mph88%29.95 "Hg10 mi
12:50 AM50 °FPassing clouds.9 mph94%29.95 "HgN/A
12:20 AM50 °FClear.8 mph94%29.95 "Hg10 mi
11:20 PM
Thu, Sep 3
52 °FClear.8 mph88%29.95 "Hg10 mi
10:50 PM52 °FClear.7 mph88%29.95 "Hg10 mi
10:20 PM54 °FPassing clouds.6 mph82%29.95 "HgN/A
9:50 PM55 °FClear.1 mph77%29.95 "Hg10 mi
9:20 PM57 °FClear.1 mph72%29.95 "Hg10 mi
8:50 PM57 °FScattered clouds.1 mph72%29.95 "HgN/A
8:20 PM57 °FScattered clouds.2 mph72%29.95 "HgN/A
7:50 PM59 °FScattered clouds.3 mph72%29.95 "HgN/A
7:20 PM61 °FScattered clouds.9 mph68%29.95 "HgN/A
6:50 PM63 °FBroken clouds.5 mph64%29.92 "HgN/A
6:20 PM63 °FBroken clouds.5 mph59%29.92 "HgN/A
5:50 PM63 °FPartly sunny.6 mph64%29.92 "HgN/A
5:20 PM63 °FBroken clouds.6 mph64%29.92 "HgN/A
4:50 PM61 °FPartly sunny.6 mph72%29.92 "HgN/A
4:20 PM61 °FSprinkles. Broken clouds.5 mph77%29.92 "HgN/A
3:50 PM61 °FSprinkles. Broken clouds.3 mph83%29.95 "HgN/A
3:20 PM61 °FSprinkles. Broken clouds.5 mph77%29.95 "HgN/A
2:50 PM63 °FBroken clouds.3 mph68%29.95 "HgN/A
2:20 PM61 °FScattered showers. Broken clouds.N/A72%29.95 "HgN/A
1:50 PM61 °FSprinkles. Partly sunny.6 mph72%29.95 "HgN/A
1:20 PM63 °FPartly sunny.7 mph68%29.95 "HgN/A
12:50 PM61 °FScattered showers. Partly sunny.5 mph68%29.95 "HgN/A
12:20 PM61 °FScattered clouds.3 mph68%29.95 "HgN/A
11:50 AM61 °FPartly sunny.3 mph68%29.95 "HgN/A
11:20 AM59 °FScattered clouds.5 mph72%29.95 "HgN/A
10:50 AM59 °FPassing clouds.3 mph72%29.95 "HgN/A
10:20 AM59 °FPassing clouds.3 mph77%29.95 "HgN/A
9:50 AM55 °FSprinkles. Scattered clouds.2 mph82%29.98 "HgN/A
9:20 AM55 °FScattered showers. Broken clouds.5 mph82%29.95 "HgN/A
8:50 AM55 °FPartly sunny.6 mph82%29.98 "HgN/A
8:20 AM54 °FPartly sunny.7 mph82%29.98 "HgN/A
7:50 AM54 °FSunny.2 mph88%29.95 "Hg10 mi
7:20 AM54 °FPassing clouds.7 mph82%29.95 "HgN/A
6:50 AM54 °FSprinkles. Passing clouds.13 mph82%29.95 "HgN/A
6:20 AM52 °FPartly cloudy.5 mph88%29.95 "HgN/A
Weather by CustomWeather, © 2015

See weather overviewHow to use our weather pages